SCP
0 0 0 0 0 0 0 0 0 0 0 0 0 1 0 0 0 0 0 0 0 0 0 0 0 0 0 0 0 0 0 0 0 0 0 0 0 0 0 0 0 0 -0
0 0 0 0 0 0 0 1 1 1 1 0 0 0 1 0 0 0 0 0 0 0 0 0 0 0 0 0 0 0 0 0 0 0 0 0 0 0 0 -0 0 0 -0
0 1 0 0 0 0 1 1 1 1 1 0 0 0 0 0 0 0 0 0 0 0 0 0 0 0 0 0 0 0 0 0 0 0 0 0 0 0 0 -0 0 0 0
0 1 1 0 0 0 1 1 1 1 1 1 0 0 0 0 0 0 0 0 0 0 0 0 0 0 0 0 0 0 0 0 0 0 0 0 0 0 0 0 0 0 0
0 0 1 0 0 0 0 1 0 1 1 1 1 0 0 0 0 0 0 0 0 0 0 0 0 0 0 0 0 0 0 0 0 0 0 0 0 0 0 0 0 0 0
0 0 0 1 0 0 0 0 1 0 1 1 1 0 0 0 0 0 0 0 0 0 0 0 0 0 0 0 0 0 0 0 0 0 0 0 0 0 0 0 0 0 0
0 0 0 0 0 0 0 0 0 0 1 1 1 0 0 0 0 0 0 0 0 0 0 0 0 0 0 0 0 0 0 0 0 0 0 0 0 0 0 0 0 0 0
0 0 0 0 0 0 0 0 0 0 0 0 1 1 0 0 0 0 0 0 0 0 0 0 0 0 0 0 0 0 0 0 0 0 0 0 0 0 0 0 0 0 0
0 0 0 0 0 0 0 0 0 0 0 0 0 1 0 0 0 0 0 0 0 0 0 0 0 0 0 0 0 0 0 0 0 0 0 0 0 0 0 0 0 0 0
0 0 0 0 0 0 0 0 0 0 0 0 0 0 0 0 0 0 0 0 0 0 0 0 0 0 0 0 0 0 0 0 0 0 0 0 0 0 0 0 0 0 0
0 0 0 0 0 0 0 0 0 0 0 0 0 0 0 0 0 0 0 0 0 0 0 0 0 0 0 0 0 0 0 0 0 0 0 0 0 0 0 0 0 0 0
0 0 0 0 0 0 0 0 0 0 0 0 0 0 0 0 0 0 0 0 0 0 0 0 0 0 0 0 0 0 0 0 0 0 0 0 0 0 0 0 0 0 0
0 0 0 0 0 0 0 0 0 0 0 0 0 0 0 0 0 0 0 0 0 0 0 0 0 0 0 0 0 0 0 0 0 0 0 0 0 0 0 0 0 0 0
0 0 0 -0 -0 0 -0 0 0 0 0 0 0 0 0 0 0 0 0 0 0 0 0 0 0 0 0 0 0 0 0 0 0 0 0 0 0 0 0 0 0 0 0
0 0 0 0 0 -0 -0 -0 0 0 0 0 0 0 0 0 0 0 0 0 0 0 0 0 0 0 0 0 0 0 0 0 0 0 0 0 0 0 0 0 0 0 0
0 0 0 0 0 0 0 0 0 0 0 0 0 0 0 0 0 0 0 0 0 0 0 0 0 0 0 0 0 0 0 0 0 0 0 0 0 0 0 0 0 0 0
0 0 0 0 0 0 0 0 0 0 0 0 0 0 0 0 0 0 0 0 0 0 0 0 0 0 0 0 0 0 0 0 0 0 0 0 0 0 0 0 0 0 0
0 0 0 0 0 0 -0 0 0 0 0 0 0 0 0 0 0 0 0 0 0 0 0 0 0 0 0 0 0 0 0 0 0 0 0 0 0 0 0 0 0 0 0
0 0 0 0 0 0 0 0 0 0 0 0 0 0 0 0 0 0 0 0 0 0 0 0 0 0 0 0 0 0 0 0 0 0 0 0 0 0 0 0 0 0 0
0 0 0 0 0 0 0 0 0 0 0 0 0 0 0 0 0 0 0 0 0 0 0 0 0 0 0 0 0 0 0 0 0 0 0 0 0 0 0 0 0 0 0
0 0 0 0 0 0 0 0 0 0 0 0 0 0 0 0 0 0 0 0 0 0 0 0 0 0 0 0 0 0 0 0 0 0 0 0 0 0 0 0 0 0 0
0 0 0 0 0 0 0 0 0 0 0 0 0 0 0 0 0 0 0 0 0 0 0 0 0 0 0 0 0 0 0 0 0 0 0 0 0 0 0 0 0 0 0
0 0 0 0 0 0 0 0 0 0 0 0 0 0 0 0 0 0 0 0 0 0 0 0 0 0 0 0 0 0 0 0 0 0 0 0 0 0 0 0 0 0 0
0 0 0 0 0 0 0 0 0 0 0 0 0 0 0 0 0 0 0 0 0 0 0 0 0 0 0 0 0 0 0 0 0 0 0 0 0 0 0 0 0 0 0
0 0 0 0 0 0 0 0 0 0 0 0 0 0 0 0 0 0 0 0 0 0 0 0 0 0 0 0 0 0 0 0 0 0 0 0 0 0 0 0 0 0 0
0 0 0 0 0 0 0 0 0 0 0 0 0 0 0 0 0 0 0 0 0 0 0 0 0 0 0 0 0 0 0 0 0 0 0 0 0 0 0 0 0 0 0
Wind_Speed_500mb
15 10 11 17 31 34 40 46 53 57 56 55 53 47 43 42 40 41 38 38 36 32 28 29 28 26 24 25 26 31 29 25 24 19 15 18 21 22 20 19 26 21 32
16 12 14 21 31 35 37 46 51 54 54 54 55 52 48 44 44 41 38 35 33 32 31 33 30 29 24 25 26 30 26 23 21 22 23 21 21 28 24 25 31 34 36
11 13 18 23 29 34 35 44 49 51 51 52 54 52 50 46 43 42 37 36 35 33 34 35 33 30 25 26 26 29 27 26 27 27 31 27 28 30 33 30 30 24 26
10 12 15 20 22 26 32 36 45 49 51 53 53 53 52 49 46 41 40 37 35 34 34 34 35 33 30 28 30 31 31 32 31 29 29 32 33 33 32 31 27 24 20
12 16 20 13 16 21 30 34 36 46 50 50 53 54 52 49 46 43 42 41 39 35 32 33 36 38 34 37 38 35 32 35 35 33 32 32 33 25 28 27 23 21 15
17 24 32 28 23 23 28 33 37 36 45 50 52 54 53 50 47 45 42 41 39 33 31 34 38 40 42 43 42 40 38 33 33 33 30 28 28 27 22 23 20 16 14
14 20 25 27 29 29 31 37 40 41 41 46 51 54 53 50 47 45 44 43 38 32 33 37 40 44 45 40 41 41 35 31 29 29 28 26 25 25 20 14 15 15 13
14 12 19 28 30 33 33 36 42 46 47 46 50 52 53 50 47 46 47 44 37 30 35 40 44 47 41 39 41 38 35 31 29 25 24 23 26 25 19 19 19 16 12
6 7 14 11 17 26 33 33 40 47 51 54 54 50 52 51 48 49 50 46 41 36 32 41 46 47 40 40 40 38 35 30 29 25 23 17 21 24 20 19 19 17 14
9 8 5 9 13 20 19 24 34 38 52 57 59 57 52 52 50 50 52 50 44 41 34 45 49 46 42 41 40 39 35 34 34 30 27 22 19 20 19 16 16 15 14
18 17 16 15 16 20 19 22 30 36 45 57 61 59 58 54 54 54 56 54 49 48 39 45 50 46 42 41 40 40 39 36 40 37 30 26 18 15 9 8 10 12 15
27 27 30 29 26 26 27 25 25 30 31 47 59 66 67 61 59 59 58 58 55 53 46 48 49 48 47 44 43 44 43 41 42 39 32 30 21 19 14 5 6 13 17
38 38 34 36 40 39 33 34 34 29 27 31 48 67 74 74 65 63 60 63 60 58 53 51 52 52 49 48 49 46 45 44 41 42 33 32 24 20 17 12 9 11 16
28 40 41 47 44 43 47 33 35 37 35 31 37 52 67 90 80 73 70 69 70 67 63 60 61 53 48 48 49 48 46 46 46 41 36 33 28 22 22 21 19 17 20
28 23 23 35 45 40 39 40 34 36 39 33 26 44 61 69 86 80 75 73 73 72 69 65 60 60 57 50 50 47 45 44 47 43 35 35 32 25 26 24 25 22 15
20 20 22 18 29 29 29 37 33 34 40 42 32 33 47 61 82 87 77 77 72 68 77 74 66 58 50 52 50 47 44 42 40 45 38 38 33 28 27 29 26 22 20
14 17 24 20 23 26 28 32 35 34 39 42 39 32 46 43 88 93 91 82 75 64 65 74 67 54 48 50 48 43 42 41 40 38 45 40 33 34 32 32 27 25 29
15 16 19 23 20 28 31 32 37 35 37 37 36 34 38 47 50 79 93 87 79 74 66 69 70 59 53 50 50 45 45 43 41 37 37 35 36 33 32 30 36 34 34
16 15 18 22 18 19 25 27 32 34 37 37 40 38 32 41 53 57 72 82 84 86 72 74 73 67 63 57 49 46 48 46 44 41 42 41 39 40 41 43 41 40 40
15 11 12 20 25 24 23 27 36 38 37 37 41 45 37 39 49 53 62 73 73 86 71 76 67 64 61 56 52 53 51 44 41 37 38 44 43 42 39 40 38 40 44
14 11 8 20 26 23 26 33 39 40 37 37 40 45 41 38 42 51 60 72 78 73 77 68 65 62 62 60 53 59 56 50 51 49 48 46 42 38 36 38 45 49 47
13 11 11 14 20 24 28 34 38 37 36 33 35 41 41 38 47 40 54 59 53 64 71 72 58 65 62 53 55 51 34 36 45 52 49 47 41 39 39 41 46 44 41
28 10 11 10 16 23 30 36 38 38 38 30 24 37 41 45 49 49 54 45 34 37 62 75 69 61 57 59 59 43 20 15 31 35 39 36 33 35 40 42 52 43 36
29 22 11 10 14 22 28 33 34 36 36 21 30 30 36 36 40 42 43 32 25 34 50 59 56 56 60 58 46 67 46 29 29 15 22 29 34 36 35 37 47 40 36
29 24 19 13 14 20 26 33 37 34 30 32 30 30 49 53 51 53 47 46 32 25 43 45 55 57 57 61 51 47 36 35 30 21 25 23 20 17 19 18 26 31 35
31 22 20 17 14 17 24 19 20 19 27 31 29 36 44 56 58 61 52 53 40 48 57 59 59 60 65 60 61 56 52 36 37 32 23 23 23 15 22 19 22 29 30
Wind_Direction_500mb
209 221 211 205 191 183 182 185 185 185 184 186 188 188 185 187 185 182 184 179 180 183 190 189 185 184 185 186 180 174 175 178 173 175 167 155 148 142 133 122 132 111 130
214 202 209 184 189 186 183 187 188 189 187 186 188 188 188 190 190 190 190 191 191 191 193 189 193 192 193 181 170 169 174 175 173 160 150 142 145 143 135 123 134 129 129
221 206 203 180 191 190 191 189 192 193 192 190 188 187 186 187 188 189 196 197 197 203 194 193 197 197 190 177 169 168 167 155 151 152 149 154 157 153 142 132 147 151 138
207 191 185 168 186 198 199 197 195 197 197 195 192 188 189 189 192 197 201 207 207 205 200 197 198 192 184 174 170 161 155 150 151 152 153 149 146 152 154 157 160 166 157
193 168 150 163 174 198 208 204 203 199 195 197 196 194 194 196 199 206 210 210 209 205 208 199 195 189 179 166 163 162 161 157 157 155 159 153 151 156 163 172 180 181 190
175 167 165 176 200 209 216 214 210 206 191 197 200 198 199 203 207 212 212 208 207 210 211 194 190 185 174 168 170 166 160 163 164 166 168 167 164 160 179 184 194 206 213
142 168 183 191 203 204 210 223 222 213 209 200 205 208 208 211 213 213 210 207 207 207 201 192 185 177 173 182 179 172 169 172 177 180 182 186 183 177 192 191 209 213 212
149 165 188 197 201 209 216 223 227 227 222 214 209 210 214 215 213 212 208 203 202 197 193 190 182 175 183 183 180 180 176 175 176 179 185 192 211 223 229 224 218 225 218
343 138 193 202 214 217 219 229 232 232 228 228 220 215 216 217 216 211 205 201 196 195 193 189 183 181 188 186 187 184 180 179 182 180 182 198 219 225 235 218 215 215 214
287 296 244 217 226 235 237 242 242 239 233 231 230 226 223 218 217 212 206 199 196 200 198 191 185 189 189 189 190 189 187 186 178 186 192 212 231 216 215 205 217 219 214
284 288 280 265 250 253 254 244 254 257 239 239 229 228 226 221 215 213 207 201 199 204 201 194 189 195 198 196 196 197 199 196 189 192 206 218 226 241 208 202 216 214 208
282 279 286 290 274 264 266 270 263 263 268 249 236 226 227 223 218 212 209 205 203 206 203 198 197 201 206 205 204 204 206 205 201 200 208 225 229 240 219 229 255 227 214
294 287 290 289 291 289 268 258 271 276 280 280 250 234 224 225 219 214 210 208 203 204 206 204 204 205 204 209 210 212 211 212 210 204 206 229 224 242 266 267 303 259 236
295 294 286 284 290 285 285 269 259 265 275 277 269 259 239 222 216 214 210 207 207 206 209 210 212 212 212 213 215 215 216 216 215 208 209 224 229 231 250 271 289 294 263
275 260 278 288 283 286 282 278 258 259 262 271 277 260 264 228 215 214 210 211 211 210 210 214 214 218 220 216 212 214 216 216 217 213 212 228 227 233 251 259 277 295 288
286 275 263 280 291 281 275 281 273 260 258 259 264 256 244 229 235 218 213 214 212 211 210 212 217 218 218 211 210 212 213 215 219 217 222 224 231 241 245 251 261 284 280
287 268 262 262 284 292 283 289 288 276 264 252 249 254 237 237 243 232 220 216 213 211 214 213 213 218 211 211 215 214 213 213 218 218 224 228 231 240 247 259 262 268 261
286 273 251 252 257 284 284 285 285 275 270 254 238 250 241 233 240 217 226 216 217 212 212 217 207 208 211 214 214 217 209 214 214 210 217 229 236 245 244 241 246 258 264
300 270 250 246 255 276 289 274 277 270 268 256 239 244 238 228 228 246 253 224 221 215 213 212 206 209 209 215 217 218 211 216 218 216 223 230 236 238 239 242 244 251 261
292 267 245 236 243 247 262 282 289 276 265 260 247 244 247 226 229 230 229 229 229 229 221 207 207 214 217 219 220 217 212 215 224 234 242 234 236 240 240 244 246 257 255
277 261 233 216 228 249 268 276 279 273 265 256 249 248 245 227 221 210 219 231 236 238 243 205 200 214 218 216 222 217 211 212 216 219 223 228 230 237 247 250 253 244 259
333 260 250 223 224 247 268 272 267 267 267 260 246 261 245 233 229 224 225 221 231 232 219 214 200 211 220 224 223 221 205 202 220 223 219 220 219 231 242 244 244 257 256
25 31 298 255 234 255 266 266 260 264 275 264 248 250 249 221 220 214 201 219 222 230 221 225 210 207 219 230 228 216 186 196 209 210 204 198 217 225 241 250 256 250 250
8 5 335 274 255 262 266 264 264 265 279 261 262 260 234 217 215 215 206 190 192 244 239 193 202 211 216 224 205 219 215 190 191 172 189 205 214 222 229 233 251 249 250
11 5 351 318 285 272 273 270 262 268 272 251 259 248 210 212 194 193 191 160 159 208 197 204 210 211 216 224 231 223 196 184 182 168 183 183 188 195 207 228 247 252 261
13 21 24 357 329 307 294 287 269 264 257 248 255 246 188 179 185 195 175 174 176 192 188 198 216 223 216 224 225 241 229 223 232 227 198 195 227 230 246 247 252 259 269
Wind_Speed_850mb
15 10 11 17 31 34 40 46 53 57 56 55 53 47 43 42 40 41 38 38 36 32 28 29 28 26 24 25 26 31 29 25 24 19 15 18 21 22 20 19 26 21 32
16 12 14 21 31 35 37 46 51 54 54 54 55 52 48 44 44 41 38 35 33 32 31 33 30 29 24 25 26 30 26 23 21 22 23 21 21 28 24 25 31 34 36
11 13 18 23 29 34 35 44 49 51 51 52 54 52 50 46 43 42 37 36 35 33 34 35 33 30 25 26 26 29 27 26 27 27 31 27 28 30 33 30 30 24 26
10 12 15 20 22 26 32 36 45 49 51 53 53 53 52 49 46 41 40 37 35 34 34 34 35 33 30 28 30 31 31 32 31 29 29 32 33 33 32 31 27 24 20
12 16 20 13 16 21 30 34 36 46 50 50 53 54 52 49 46 43 42 41 39 35 32 33 36 38 34 37 38 35 32 35 35 33 32 32 33 25 28 27 23 21 15
17 24 32 28 23 23 28 33 37 36 45 50 52 54 53 50 47 45 42 41 39 33 31 34 38 40 42 43 42 40 38 33 33 33 30 28 28 27 22 23 20 16 14
14 20 25 27 29 29 31 37 40 41 41 46 51 54 53 50 47 45 44 43 38 32 33 37 40 44 45 40 41 41 35 31 29 29 28 26 25 25 20 14 15 15 13
14 12 19 28 30 33 33 36 42 46 47 46 50 52 53 50 47 46 47 44 37 30 35 40 44 47 41 39 41 38 35 31 29 25 24 23 26 25 19 19 19 16 12
6 7 14 11 17 26 33 33 40 47 51 54 54 50 52 51 48 49 50 46 41 36 32 41 46 47 40 40 40 38 35 30 29 25 23 17 21 24 20 19 19 17 14
9 8 5 9 13 20 19 24 34 38 52 57 59 57 52 52 50 50 52 50 44 41 34 45 49 46 42 41 40 39 35 34 34 30 27 22 19 20 19 16 16 15 14
18 17 16 15 16 20 19 22 30 36 45 57 61 59 58 54 54 54 56 54 49 48 39 45 50 46 42 41 40 40 39 36 40 37 30 26 18 15 9 8 10 12 15
27 27 30 29 26 26 27 25 25 30 31 47 59 66 67 61 59 59 58 58 55 53 46 48 49 48 47 44 43 44 43 41 42 39 32 30 21 19 14 5 6 13 17
38 38 34 36 40 39 33 34 34 29 27 31 48 67 74 74 65 63 60 63 60 58 53 51 52 52 49 48 49 46 45 44 41 42 33 32 24 20 17 12 9 11 16
28 40 41 47 44 43 47 33 35 37 35 31 37 52 67 90 80 73 70 69 70 67 63 60 61 53 48 48 49 48 46 46 46 41 36 33 28 22 22 21 19 17 20
28 23 23 35 45 40 39 40 34 36 39 33 26 44 61 69 86 80 75 73 73 72 69 65 60 60 57 50 50 47 45 44 47 43 35 35 32 25 26 24 25 22 15
20 20 22 18 29 29 29 37 33 34 40 42 32 33 47 61 82 87 77 77 72 68 77 74 66 58 50 52 50 47 44 42 40 45 38 38 33 28 27 29 26 22 20
14 17 24 20 23 26 28 32 35 34 39 42 39 32 46 43 88 93 91 82 75 64 65 74 67 54 48 50 48 43 42 41 40 38 45 40 33 34 32 32 27 25 29
15 16 19 23 20 28 31 32 37 35 37 37 36 34 38 47 50 79 93 87 79 74 66 69 70 59 53 50 50 45 45 43 41 37 37 35 36 33 32 30 36 34 34
16 15 18 22 18 19 25 27 32 34 37 37 40 38 32 41 53 57 72 82 84 86 72 74 73 67 63 57 49 46 48 46 44 41 42 41 39 40 41 43 41 40 40
15 11 12 20 25 24 23 27 36 38 37 37 41 45 37 39 49 53 62 73 73 86 71 76 67 64 61 56 52 53 51 44 41 37 38 44 43 42 39 40 38 40 44
14 11 8 20 26 23 26 33 39 40 37 37 40 45 41 38 42 51 60 72 78 73 77 68 65 62 62 60 53 59 56 50 51 49 48 46 42 38 36 38 45 49 47
13 11 11 14 20 24 28 34 38 37 36 33 35 41 41 38 47 40 54 59 53 64 71 72 58 65 62 53 55 51 34 36 45 52 49 47 41 39 39 41 46 44 41
28 10 11 10 16 23 30 36 38 38 38 30 24 37 41 45 49 49 54 45 34 37 62 75 69 61 57 59 59 43 20 15 31 35 39 36 33 35 40 42 52 43 36
29 22 11 10 14 22 28 33 34 36 36 21 30 30 36 36 40 42 43 32 25 34 50 59 56 56 60 58 46 67 46 29 29 15 22 29 34 36 35 37 47 40 36
29 24 19 13 14 20 26 33 37 34 30 32 30 30 49 53 51 53 47 46 32 25 43 45 55 57 57 61 51 47 36 35 30 21 25 23 20 17 19 18 26 31 35
31 22 20 17 14 17 24 19 20 19 27 31 29 36 44 56 58 61 52 53 40 48 57 59 59 60 65 60 61 56 52 36 37 32 23 23 23 15 22 19 22 29 30
Wind_Direction_850mb
209 221 211 205 191 183 182 185 185 185 184 186 188 188 185 187 185 182 184 179 180 183 190 189 185 184 185 186 180 174 175 178 173 175 167 155 148 142 133 122 132 111 130
214 202 209 184 189 186 183 187 188 189 187 186 188 188 188 190 190 190 190 191 191 191 193 189 193 192 193 181 170 169 174 175 173 160 150 142 145 143 135 123 134 129 129
221 206 203 180 191 190 191 189 192 193 192 190 188 187 186 187 188 189 196 197 197 203 194 193 197 197 190 177 169 168 167 155 151 152 149 154 157 153 142 132 147 151 138
207 191 185 168 186 198 199 197 195 197 197 195 192 188 189 189 192 197 201 207 207 205 200 197 198 192 184 174 170 161 155 150 151 152 153 149 146 152 154 157 160 166 157
193 168 150 163 174 198 208 204 203 199 195 197 196 194 194 196 199 206 210 210 209 205 208 199 195 189 179 166 163 162 161 157 157 155 159 153 151 156 163 172 180 181 190
175 167 165 176 200 209 216 214 210 206 191 197 200 198 199 203 207 212 212 208 207 210 211 194 190 185 174 168 170 166 160 163 164 166 168 167 164 160 179 184 194 206 213
142 168 183 191 203 204 210 223 222 213 209 200 205 208 208 211 213 213 210 207 207 207 201 192 185 177 173 182 179 172 169 172 177 180 182 186 183 177 192 191 209 213 212
149 165 188 197 201 209 216 223 227 227 222 214 209 210 214 215 213 212 208 203 202 197 193 190 182 175 183 183 180 180 176 175 176 179 185 192 211 223 229 224 218 225 218
343 138 193 202 214 217 219 229 232 232 228 228 220 215 216 217 216 211 205 201 196 195 193 189 183 181 188 186 187 184 180 179 182 180 182 198 219 225 235 218 215 215 214
287 296 244 217 226 235 237 242 242 239 233 231 230 226 223 218 217 212 206 199 196 200 198 191 185 189 189 189 190 189 187 186 178 186 192 212 231 216 215 205 217 219 214
284 288 280 265 250 253 254 244 254 257 239 239 229 228 226 221 215 213 207 201 199 204 201 194 189 195 198 196 196 197 199 196 189 192 206 218 226 241 208 202 216 214 208
282 279 286 290 274 264 266 270 263 263 268 249 236 226 227 223 218 212 209 205 203 206 203 198 197 201 206 205 204 204 206 205 201 200 208 225 229 240 219 229 255 227 214
294 287 290 289 291 289 268 258 271 276 280 280 250 234 224 225 219 214 210 208 203 204 206 204 204 205 204 209 210 212 211 212 210 204 206 229 224 242 266 267 303 259 236
295 294 286 284 290 285 285 269 259 265 275 277 269 259 239 222 216 214 210 207 207 206 209 210 212 212 212 213 215 215 216 216 215 208 209 224 229 231 250 271 289 294 263
275 260 278 288 283 286 282 278 258 259 262 271 277 260 264 228 215 214 210 211 211 210 210 214 214 218 220 216 212 214 216 216 217 213 212 228 227 233 251 259 277 295 288
286 275 263 280 291 281 275 281 273 260 258 259 264 256 244 229 235 218 213 214 212 211 210 212 217 218 218 211 210 212 213 215 219 217 222 224 231 241 245 251 261 284 280
287 268 262 262 284 292 283 289 288 276 264 252 249 254 237 237 243 232 220 216 213 211 214 213 213 218 211 211 215 214 213 213 218 218 224 228 231 240 247 259 262 268 261
286 273 251 252 257 284 284 285 285 275 270 254 238 250 241 233 240 217 226 216 217 212 212 217 207 208 211 214 214 217 209 214 214 210 217 229 236 245 244 241 246 258 264
300 270 250 246 255 276 289 274 277 270 268 256 239 244 238 228 228 246 253 224 221 215 213 212 206 209 209 215 217 218 211 216 218 216 223 230 236 238 239 242 244 251 261
292 267 245 236 243 247 262 282 289 276 265 260 247 244 247 226 229 230 229 229 229 229 221 207 207 214 217 219 220 217 212 215 224 234 242 234 236 240 240 244 246 257 255
277 261 233 216 228 249 268 276 279 273 265 256 249 248 245 227 221 210 219 231 236 238 243 205 200 214 218 216 222 217 211 212 216 219 223 228 230 237 247 250 253 244 259
333 260 250 223 224 247 268 272 267 267 267 260 246 261 245 233 229 224 225 221 231 232 219 214 200 211 220 224 223 221 205 202 220 223 219 220 219 231 242 244 244 257 256
25 31 298 255 234 255 266 266 260 264 275 264 248 250 249 221 220 214 201 219 222 230 221 225 210 207 219 230 228 216 186 196 209 210 204 198 217 225 241 250 256 250 250
8 5 335 274 255 262 266 264 264 265 279 261 262 260 234 217 215 215 206 190 192 244 239 193 202 211 216 224 205 219 215 190 191 172 189 205 214 222 229 233 251 249 250
11 5 351 318 285 272 273 270 262 268 272 251 259 248 210 212 194 193 191 160 159 208 197 204 210 211 216 224 231 223 196 184 182 168 183 183 188 195 207 228 247 252 261
13 21 24 357 329 307 294 287 269 264 257 248 255 246 188 179 185 195 175 174 176 192 188 198 216 223 216 224 225 241 229 223 232 227 198 195 227 230 246 247 252 259 269